STARLINK-2438

Last updated on Sat May 08 2021 00:02:03 GMT+0000 (Coordinated Universal Time)

1 48103U 21027M 21127.58334491 .00056223 00000-0 40226-3 0 9993 2 48103 53.0476 191.7797 0002341 21.4544 265.7222 15.73198369 1777

Satellite not in orbit